Time,TemperatureF,DewpointF,PressureIn,WindDirection,WindDirectionDegrees,WindSpeedMPH,WindSpeedGustMPH,Humidity,HourlyPrecipIn,Conditions,Clouds,dailyrainin,SoftwareType,DateUTC
2013-03-21 00:00:00,29.3,20.4,29.50,South,183,0.1,1.1,69,0.00,RA,SCT,0.00,WeatherDisplay:10.37,2013-03-21 04:00:00,
2013-03-21 00:05:00,29.2,20.3,29.50,South,183,0.0,0.0,69,0.00,RA,SCT,0.00,WeatherDisplay:10.37,2013-03-21 04:05:00,
2013-03-21 00:10:00,29.2,20.3,29.49,WSW,254,0.7,2.0,69,0.00,CLR,SCT,0.00,WeatherDisplay:10.37,2013-03-21 04:10:00,
2013-03-21 00:15:00,29.2,20.6,29.49,WSW,254,0.2,1.1,70,0.00,CLR,SCT,0.00,WeatherDisplay:10.37,2013-03-21 04:15:00,
2013-03-21 00:20:00,29.2,20.6,29.50,WSW,254,0.0,0.0,70,0.00,CLR,SCT,0.00,WeatherDisplay:10.37,2013-03-21 04:20:00,
2013-03-21 00:25:00,29.1,20.9,29.50,West,262,0.4,2.3,71,0.00,CLR,SCT,0.00,WeatherDisplay:10.37,2013-03-21 04:25:00,
2013-03-21 00:30:00,28.9,21.0,29.50,West,262,0.5,1.1,72,0.00,CLR,SCT,0.00,WeatherDisplay:10.37,2013-03-21 04:30:00,
2013-03-21 00:35:00,28.8,20.9,29.50,West,262,0.1,1.1,72,0.00,CLR,SCT,0.00,WeatherDisplay:10.37,2013-03-21 04:35:00,
2013-03-21 00:40:00,28.6,21.0,29.50,West,262,0.1,1.0,73,0.00,CLR,SCT,0.00,WeatherDisplay:10.37,2013-03-21 04:40:00,
2013-03-21 00:45:00,28.5,20.9,29.50,West,262,0.3,1.1,73,0.00,CLR,SCT,0.00,WeatherDisplay:10.37,2013-03-21 04:45:00,
2013-03-21 00:50:00,28.5,20.9,29.50,West,262,0.1,1.0,73,0.00,CLR,SCT,0.00,WeatherDisplay:10.37,2013-03-21 04:50:00,
2013-03-21 00:55:00,28.5,21.3,29.50,West,262,0.0,0.0,74,0.00,CLR,SCT,0.00,WeatherDisplay:10.37,2013-03-21 04:55:00,
2013-03-21 01:00:00,28.5,21.3,29.50,West,262,0.3,1.1,74,0.00,CLR,SCT,0.00,WeatherDisplay:10.37,2013-03-21 05:00:00,
2013-03-21 01:05:00,28.5,21.6,29.50,West,262,0.0,0.0,75,0.00,CLR,SCT,0.00,WeatherDisplay:10.37,2013-03-21 05:05:00,
2013-03-21 01:10:00,28.6,21.7,29.50,West,262,0.0,0.0,75,0.00,CLR,SCT,0.00,WeatherDisplay:10.37,2013-03-21 05:10:00,
2013-03-21 01:15:00,28.7,21.8,29.50,West,262,0.0,0.0,75,0.00,CLR,SCT,0.00,WeatherDisplay:10.37,2013-03-21 05:15:00,
2013-03-21 01:20:00,28.7,21.8,29.50,West,262,0.0,0.0,75,0.00,CLR,SCT,0.00,WeatherDisplay:10.37,2013-03-21 05:20:00,
2013-03-21 01:25:00,28.7,21.5,29.50,West,262,0.0,0.0,74,0.00,CLR,SCT,0.00,WeatherDisplay:10.37,2013-03-21 05:25:00,
2013-03-21 01:30:00,28.8,21.9,29.50,West,262,0.3,1.1,75,0.00,CLR,SCT,0.00,WeatherDisplay:10.37,2013-03-21 05:30:00,
2013-03-21 01:35:00,28.9,21.7,29.50,West,262,0.0,0.0,74,0.00,CLR,SCT,0.00,WeatherDisplay:10.37,2013-03-21 05:35:00,
2013-03-21 01:40:00,28.9,22.0,29.50,West,262,0.4,1.1,75,0.00,CLR,SCT,0.00,WeatherDisplay:10.37,2013-03-21 05:40:00,
2013-03-21 01:45:00,28.9,21.7,29.50,West,262,0.0,0.0,74,0.00,CLR,SCT,0.00,WeatherDisplay:10.37,2013-03-21 05:45:00,
2013-03-21 01:50:00,28.9,22.0,29.50,West,271,0.5,2.3,75,0.00,CLR,SCT,0.00,WeatherDisplay:10.37,2013-03-21 05:50:00,
2013-03-21 01:55:00,28.8,21.9,29.49,West,271,0.4,1.1,75,0.00,CLR,SCT,0.00,WeatherDisplay:10.37,2013-03-21 05:55:00,
2013-03-21 02:00:00,28.8,22.2,29.49,West,271,0.0,1.1,76,0.00,CLR,SCT,0.00,WeatherDisplay:10.37,2013-03-21 06:00:00,
2013-03-21 02:05:00,28.8,22.2,29.50,West,271,0.0,0.0,76,0.00,CLR,SCT,0.00,WeatherDisplay:10.37,2013-03-21 06:05:00,
2013-03-21 02:10:00,28.8,22.2,29.50,West,271,0.4,1.1,76,0.00,CLR,SCT,0.00,WeatherDisplay:10.37,2013-03-21 06:10:00,
2013-03-21 02:15:00,28.8,22.2,29.50,West,271,0.0,0.0,76,0.00,CLR,SCT,0.00,WeatherDisplay:10.37,2013-03-21 06:15:00,
2013-03-21 02:20:00,28.7,22.1,29.49,West,271,0.0,0.0,76,0.00,CLR,SCT,0.00,WeatherDisplay:10.37,2013-03-21 06:20:00,
2013-03-21 02:25:00,28.7,22.1,29.49,West,271,0.0,0.0,76,0.00,CLR,SCT,0.00,WeatherDisplay:10.37,2013-03-21 06:25:00,
2013-03-21 02:30:00,28.6,22.3,29.49,West,271,0.1,1.1,77,0.00,CLR,SCT,0.00,WeatherDisplay:10.37,2013-03-21 06:30:00,
2013-03-21 02:35:00,28.6,22.0,29.49,West,271,0.0,0.0,76,0.00,CLR,SCT,0.00,WeatherDisplay:10.37,2013-03-21 06:35:00,
2013-03-21 02:40:00,28.6,22.0,29.49,West,271,0.0,0.0,76,0.00,CLR,SCT,0.00,WeatherDisplay:10.37,2013-03-21 06:40:00,
2013-03-21 02:45:00,28.5,21.9,29.48,West,271,0.0,0.0,76,0.00,CLR,SCT,0.00,WeatherDisplay:10.37,2013-03-21 06:45:00,
2013-03-21 02:50:00,28.4,21.8,29.48,West,271,0.0,0.0,76,0.00,CLR,SCT,0.00,WeatherDisplay:10.37,2013-03-21 06:50:00,
2013-03-21 02:55:00,28.2,21.9,29.48,West,271,0.0,0.0,77,0.00,CLR,SCT,0.00,WeatherDisplay:10.37,2013-03-21 06:55:00,
2013-03-21 03:00:00,28.0,21.7,29.48,West,271,0.0,0.0,77,0.00,CLR,SCT,0.00,WeatherDisplay:10.37,2013-03-21 07:00:00,
2013-03-21 03:05:00,27.8,21.5,29.48,West,271,0.0,0.0,77,0.00,CLR,SCT,0.00,WeatherDisplay:10.37,2013-03-21 07:05:00,
2013-03-21 03:10:00,27.6,21.3,29.47,West,271,0.0,0.0,77,0.00,CLR,SCT,0.00,WeatherDisplay:10.37,2013-03-21 07:10:00,
2013-03-21 03:15:00,27.5,21.5,29.47,West,271,0.0,0.0,78,0.00,CLR,SCT,0.00,WeatherDisplay:10.37,2013-03-21 07:15:00,
2013-03-21 03:20:00,27.4,21.4,29.47,West,271,0.0,0.0,78,0.00,CLR,SCT,0.00,WeatherDisplay:10.37,2013-03-21 07:20:00,
2013-03-21 03:25:00,27.4,21.4,29.47,West,271,0.0,0.0,78,0.00,CLR,SCT,0.00,WeatherDisplay:10.37,2013-03-21 07:25:00,
2013-03-21 03:30:00,27.4,21.4,29.47,West,271,0.4,1.1,78,0.00,CLR,SCT,0.00,WeatherDisplay:10.37,2013-03-21 07:30:00,
2013-03-21 03:35:00,27.4,21.4,29.47,West,271,0.0,0.0,78,0.00,CLR,SCT,0.00,WeatherDisplay:10.37,2013-03-21 07:35:00,
2013-03-21 03:40:00,27.3,21.6,29.46,West,271,0.2,1.1,79,0.00,CLR,SCT,0.00,WeatherDisplay:10.37,2013-03-21 07:40:00,
2013-03-21 03:45:00,27.3,21.3,29.46,West,271,0.0,0.0,78,0.00,CLR,SCT,0.00,WeatherDisplay:10.37,2013-03-21 07:45:00,
2013-03-21 03:50:00,27.3,21.3,29.46,West,271,0.0,0.0,78,0.00,CLR,SCT,0.00,WeatherDisplay:10.37,2013-03-21 07:50:00,
2013-03-21 03:55:00,27.2,21.2,29.46,West,271,0.0,0.0,78,0.00,CLR,SCT,0.00,WeatherDisplay:10.37,2013-03-21 07:55:00,
2013-03-21 04:00:00,27.3,21.0,29.46,West,271,0.3,1.1,77,0.00,CLR,SCT,0.00,WeatherDisplay:10.37,2013-03-21 08:00:00,
2013-03-21 04:05:00,27.4,21.1,29.46,West,271,0.1,0.0,77,0.00,CLR,SCT,0.00,WeatherDisplay:10.37,2013-03-21 08:05:00,
2013-03-21 04:10:00,27.4,21.1,29.46,West,271,0.0,0.0,77,0.00,CLR,SCT,0.00,WeatherDisplay:10.37,2013-03-21 08:10:00,
2013-03-21 04:15:00,27.4,20.8,29.45,West,271,0.6,1.1,76,0.00,CLR,SCT,0.00,WeatherDisplay:10.37,2013-03-21 08:15:00,
2013-03-21 04:20:00,27.4,20.8,29.45,West,271,0.0,0.0,76,0.00,CLR,SCT,0.00,WeatherDisplay:10.37,2013-03-21 08:20:00,
2013-03-21 04:25:00,27.4,20.8,29.46,West,271,0.0,1.1,76,0.00,CLR,SCT,0.00,WeatherDisplay:10.37,2013-03-21 08:25:00,
2013-03-21 04:30:00,27.4,21.1,29.45,West,271,0.0,0.0,77,0.00,CLR,SCT,0.00,WeatherDisplay:10.37,2013-03-21 08:30:00,
2013-03-21 04:35:00,27.3,21.0,29.45,West,271,0.0,0.0,77,0.00,CLR,SCT,0.00,WeatherDisplay:10.37,2013-03-21 08:35:00,
2013-03-21 04:40:00,27.2,20.9,29.45,West,271,0.0,0.0,77,0.00,CLR,SCT,0.00,WeatherDisplay:10.37,2013-03-21 08:40:00,
2013-03-21 04:45:00,27.1,20.5,29.45,West,271,0.0,0.0,76,0.00,CLR,SCT,0.00,WeatherDisplay:10.37,2013-03-21 08:45:00,
2013-03-21 04:50:00,27.0,20.4,29.45,West,271,0.8,1.1,76,0.00,CLR,SCT,0.00,WeatherDisplay:10.37,2013-03-21 08:50:00,
2013-03-21 04:55:00,27.0,20.4,29.45,West,271,1.0,2.3,76,0.00,CLR,SCT,0.00,WeatherDisplay:10.37,2013-03-21 08:55:00,
2013-03-21 05:00:00,27.1,20.5,29.44,West,271,0.1,2.3,76,0.00,CLR,SCT,0.00,WeatherDisplay:10.37,2013-03-21 09:00:00,
2013-03-21 05:05:00,27.0,20.4,29.45,West,271,0.0,1.1,76,0.00,CLR,SCT,0.00,WeatherDisplay:10.37,2013-03-21 09:05:00,
2013-03-21 05:10:00,27.0,20.4,29.45,West,271,0.2,1.1,76,0.00,CLR,SCT,0.00,WeatherDisplay:10.37,2013-03-21 09:10:00,
2013-03-21 05:15:00,26.8,20.2,29.45,West,271,0.0,0.0,76,0.00,CLR,SCT,0.00,WeatherDisplay:10.37,2013-03-21 09:15:00,
2013-03-21 05:20:00,26.7,20.5,29.44,West,271,0.9,1.1,77,0.00,CLR,SCT,0.00,WeatherDisplay:10.37,2013-03-21 09:20:00,
2013-03-21 05:25:00,26.5,20.3,29.45,WNW,287,0.0,0.0,77,0.00,CLR,SCT,0.00,WeatherDisplay:10.37,2013-03-21 09:25:00,
2013-03-21 05:30:00,26.3,20.1,29.44,WNW,287,0.0,0.0,77,0.00,CLR,SCT,0.00,WeatherDisplay:10.37,2013-03-21 09:30:00,
2013-03-21 05:35:00,26.2,20.3,29.45,WNW,287,0.0,0.0,78,0.00,CLR,SCT,0.00,WeatherDisplay:10.37,2013-03-21 09:35:00,
2013-03-21 05:40:00,26.0,20.1,29.44,North,360,0.8,1.1,78,0.00,CLR,SCT,0.00,WeatherDisplay:10.37,2013-03-21 09:40:00,
2013-03-21 05:45:00,26.0,20.1,29.44,North,360,0.0,1.1,78,0.00,CLR,SCT,0.00,WeatherDisplay:10.37,2013-03-21 09:45:00,
2013-03-21 05:50:00,25.8,19.9,29.44,North,360,0.4,2.3,78,0.00,CLR,SCT,0.00,WeatherDisplay:10.37,2013-03-21 09:50:00,
2013-03-21 05:55:00,25.8,19.9,29.45,North,355,0.1,2.3,78,0.00,CLR,SCT,0.00,WeatherDisplay:10.37,2013-03-21 09:55:00,
2013-03-21 06:00:00,25.8,19.9,29.45,North,355,0.0,0.0,78,0.00,CLR,SCT,0.00,WeatherDisplay:10.37,2013-03-21 10:00:00,
2013-03-21 06:05:00,25.8,20.2,29.45,North,355,0.0,0.0,79,0.00,CLR,SCT,0.00,WeatherDisplay:10.37,2013-03-21 10:05:00,
2013-03-21 06:10:00,25.8,20.2,29.45,North,355,0.0,0.0,79,0.00,CLR,SCT,0.00,WeatherDisplay:10.37,2013-03-21 10:10:00,
2013-03-21 06:15:00,25.8,19.9,29.45,North,355,0.0,1.0,78,0.00,CLR,SCT,0.00,WeatherDisplay:10.37,2013-03-21 10:15:00,
2013-03-21 06:20:00,25.9,20.0,29.45,North,355,0.5,1.0,78,0.00,CLR,SCT,0.00,WeatherDisplay:10.37,2013-03-21 10:20:00,
2013-03-21 06:25:00,26.0,20.1,29.45,North,355,0.0,0.0,78,0.00,CLR,SCT,0.00,WeatherDisplay:10.37,2013-03-21 10:25:00,
2013-03-21 06:30:00,26.1,20.2,29.46,North,355,0.0,0.0,78,0.00,CLR,SCT,0.00,WeatherDisplay:10.37,2013-03-21 10:30:00,
2013-03-21 06:35:00,26.1,20.5,29.45,North,355,0.0,0.0,79,0.00,CLR,SCT,0.00,WeatherDisplay:10.37,2013-03-21 10:35:00,
2013-03-21 06:40:00,26.1,20.5,29.45,North,355,0.0,0.0,79,0.00,CLR,SCT,0.00,WeatherDisplay:10.37,2013-03-21 10:40:00,
2013-03-21 06:45:00,26.1,20.5,29.45,North,355,0.0,0.0,79,0.00,CLR,SCT,0.00,WeatherDisplay:10.37,2013-03-21 10:45:00,
2013-03-21 06:50:00,26.1,20.5,29.45,North,355,0.0,0.0,79,0.00,CLR,SCT,0.00,WeatherDisplay:10.37,2013-03-21 10:50:00,
2013-03-21 06:55:00,26.0,20.1,29.45,North,355,0.0,0.0,78,0.00,CLR,SCT,0.00,WeatherDisplay:10.37,2013-03-21 10:55:00,
2013-03-21 07:00:00,26.1,20.2,29.45,North,355,0.0,0.0,78,0.00,CLR,SCT,0.00,WeatherDisplay:10.37,2013-03-21 11:00:00,
2013-03-21 07:05:00,26.1,20.2,29.45,North,355,0.0,0.0,78,0.00,CLR,SCT,0.00,WeatherDisplay:10.37,2013-03-21 11:05:00,
2013-03-21 07:10:00,26.2,20.6,29.45,North,355,0.0,0.0,79,0.00,CLR,SCT,0.00,WeatherDisplay:10.37,2013-03-21 11:10:00,
2013-03-21 07:15:00,26.1,20.5,29.45,North,355,0.2,1.1,79,0.00,CLR,SCT,0.00,WeatherDisplay:10.37,2013-03-21 11:15:00,
2013-03-21 07:20:00,26.2,20.3,29.45,North,355,0.1,0.0,78,0.00,CLR,SCT,0.00,WeatherDisplay:10.37,2013-03-21 11:20:00,
2013-03-21 07:25:00,26.3,20.4,29.45,North,355,0.1,2.3,78,0.00,CLR,SCT,0.00,WeatherDisplay:10.37,2013-03-21 11:25:00,
2013-03-21 07:30:00,26.4,19.9,29.46,North,355,1.0,2.3,76,0.00,CLR,SCT,0.00,WeatherDisplay:10.37,2013-03-21 11:30:00,
2013-03-21 07:35:00,26.4,19.9,29.46,North,355,0.5,1.1,76,0.00,CLR,SCT,0.00,WeatherDisplay:10.37,2013-03-21 11:35:00,
2013-03-21 07:40:00,26.5,20.0,29.46,North,355,0.4,1.1,76,0.00,CLR,SCT,0.00,WeatherDisplay:10.37,2013-03-21 11:40:00,
2013-03-21 07:45:00,26.6,19.4,29.46,NNE,15,0.4,2.3,74,0.00,CLR,SCT,0.00,WeatherDisplay:10.37,2013-03-21 11:45:00,
2013-03-21 07:50:00,26.7,19.5,29.46,NNE,15,0.0,0.0,74,0.00,CLR,SCT,0.00,WeatherDisplay:10.37,2013-03-21 11:50:00,
2013-03-21 07:55:00,26.8,19.9,29.46,NNE,15,1.4,2.3,75,0.00,CLR,SCT,0.00,WeatherDisplay:10.37,2013-03-21 11:55:00,
2013-03-21 08:00:00,26.8,19.6,29.46,NNE,15,0.0,0.0,74,0.00,CLR,SCT,0.00,WeatherDisplay:10.37,2013-03-21 12:00:00,
2013-03-21 08:05:00,26.9,19.4,29.46,NNE,15,0.2,1.1,73,0.00,CLR,SCT,0.00,WeatherDisplay:10.37,2013-03-21 12:05:00,
2013-03-21 08:10:00,26.9,19.4,29.46,NNE,15,1.3,2.3,73,0.00,CLR,SCT,0.00,WeatherDisplay:10.37,2013-03-21 12:10:00,
2013-03-21 08:15:00,26.9,20.0,29.46,NNE,15,1.2,2.3,75,0.00,CLR,SCT,0.00,WeatherDisplay:10.37,2013-03-21 12:15:00,
2013-03-21 08:20:00,26.8,20.2,29.45,NNE,15,0.5,2.3,76,0.00,CLR,SCT,0.00,WeatherDisplay:10.37,2013-03-21 12:20:00,
2013-03-21 08:25:00,26.8,20.6,29.45,NNE,15,0.3,1.1,77,0.00,CLR,SCT,0.00,WeatherDisplay:10.37,2013-03-21 12:25:00,
2013-03-21 08:30:00,26.9,21.0,29.45,NNE,15,0.1,1.0,78,0.00,CLR,SCT,0.00,WeatherDisplay:10.37,2013-03-21 12:30:00,
2013-03-21 08:35:00,27.0,20.4,29.45,NNE,15,0.7,2.3,76,0.00,CLR,SCT,0.00,WeatherDisplay:10.37,2013-03-21 12:35:00,
2013-03-21 08:40:00,27.0,20.1,29.44,North,360,3.2,5.0,75,0.00,CLR,SCT,0.00,WeatherDisplay:10.37,2013-03-21 12:40:00,
2013-03-21 08:45:00,26.9,20.0,29.44,NNW,341,1.5,2.3,75,0.00,CLR,SCT,0.00,WeatherDisplay:10.37,2013-03-21 12:45:00,
2013-03-21 08:50:00,27.0,20.4,29.44,NNW,344,2.0,4.0,76,0.00,CLR,SCT,0.00,WeatherDisplay:10.37,2013-03-21 12:50:00,
2013-03-21 08:55:00,27.3,21.0,29.44,NNW,333,1.0,3.5,77,0.00,CLR,SCT,0.00,WeatherDisplay:10.37,2013-03-21 12:55:00,
2013-03-21 09:00:00,27.3,20.7,29.44,NW,317,1.1,2.3,76,0.00,CLR,SCT,0.00,WeatherDisplay:10.37,2013-03-21 13:00:00,
2013-03-21 09:05:00,27.2,20.6,29.44,NW,317,0.2,2.3,76,0.00,CLR,SCT,0.00,WeatherDisplay:10.37,2013-03-21 13:05:00,
2013-03-21 09:10:00,27.2,20.9,29.44,North,5,0.8,2.3,77,0.00,CLR,SCT,0.00,WeatherDisplay:10.37,2013-03-21 13:10:00,
2013-03-21 09:15:00,27.3,20.7,29.44,North,355,0.7,1.1,76,0.00,CLR,SCT,0.00,WeatherDisplay:10.37,2013-03-21 13:15:00,
2013-03-21 09:20:00,27.4,21.1,29.44,North,360,3.5,6.0,77,0.00,CLR,SCT,0.00,WeatherDisplay:10.37,2013-03-21 13:20:00,
2013-03-21 09:25:00,27.4,21.1,29.44,NNW,335,2.6,4.6,77,0.00,CLR,SCT,0.00,WeatherDisplay:10.37,2013-03-21 13:25:00,
2013-03-21 09:30:00,27.5,21.2,29.44,NW,316,2.5,4.6,77,0.00,CLR,SCT,0.00,WeatherDisplay:10.37,2013-03-21 13:30:00,
2013-03-21 09:35:00,27.5,20.9,29.44,NW,323,1.8,3.5,76,0.00,CLR,SCT,0.00,WeatherDisplay:10.37,2013-03-21 13:35:00,
2013-03-21 09:40:00,27.5,20.9,29.43,North,355,1.0,3.5,76,0.00,CLR,SCT,0.00,WeatherDisplay:10.37,2013-03-21 13:40:00,
2013-03-21 09:45:00,27.7,20.8,29.43,North,355,2.5,5.8,75,0.00,CLR,SCT,0.00,WeatherDisplay:10.37,2013-03-21 13:45:00,
2013-03-21 09:50:00,27.8,20.6,29.43,North,9,3.4,4.6,74,0.00,CLR,SCT,0.00,WeatherDisplay:10.37,2013-03-21 13:50:00,
2013-03-21 09:55:00,27.9,21.0,29.42,NNW,334,1.9,3.5,75,0.00,CLR,SCT,0.00,WeatherDisplay:10.37,2013-03-21 13:55:00,
2013-03-21 10:00:00,28.2,21.0,29.43,NW,304,4.0,6.9,74,0.00,CLR,SCT,0.00,WeatherDisplay:10.37,2013-03-21 14:00:00,
2013-03-21 10:05:00,28.3,20.1,29.42,NW,311,1.5,4.6,71,0.00,CLR,SCT,0.00,WeatherDisplay:10.37,2013-03-21 14:05:00,
2013-03-21 10:10:00,28.4,19.5,29.42,WNW,299,2.8,3.5,69,0.00,CLR,SCT,0.00,WeatherDisplay:10.37,2013-03-21 14:10:00,
2013-03-21 10:15:00,28.6,19.0,29.43,NNW,338,4.0,5.0,67,0.00,CLR,SCT,0.00,WeatherDisplay:10.37,2013-03-21 14:15:00,
2013-03-21 10:20:00,28.7,18.4,29.42,NW,310,2.7,5.8,65,0.00,CLR,SCT,0.00,WeatherDisplay:10.37,2013-03-21 14:20:00,
2013-03-21 10:25:00,28.8,18.1,29.42,North,350,4.3,6.9,64,0.00,CLR,SCT,0.00,WeatherDisplay:10.37,2013-03-21 14:25:00,
2013-03-21 10:30:00,29.2,18.2,29.42,NNW,329,1.0,3.5,63,0.00,CLR,SCT,0.00,WeatherDisplay:10.37,2013-03-21 14:30:00,
2013-03-21 10:35:00,29.6,17.8,29.42,NNE,26,1.8,5.0,61,0.00,CLR,SCT,0.00,WeatherDisplay:10.37,2013-03-21 14:35:00,
2013-03-21 10:40:00,29.7,17.1,29.42,NNW,327,4.2,4.2,59,0.00,CLR,SCT,0.00,WeatherDisplay:10.37,2013-03-21 14:40:00,
2013-03-21 10:45:00,29.4,16.8,29.42,NW,304,3.6,4.0,59,0.00,CLR,SCT,0.00,WeatherDisplay:10.37,2013-03-21 14:45:00,
2013-03-21 10:50:00,29.3,15.9,29.42,NW,321,4.1,4.6,57,0.00,CLR,SCT,0.00,WeatherDisplay:10.37,2013-03-21 14:50:00,
2013-03-21 10:55:00,29.4,16.4,29.42,NNW,330,3.9,4.6,58,0.00,CLR,SCT,0.00,WeatherDisplay:10.37,2013-03-21 14:55:00,
2013-03-21 11:00:00,29.6,16.2,29.42,NW,326,4.3,5.8,57,0.00,CLR,SCT,0.00,WeatherDisplay:10.37,2013-03-21 15:00:00,
2013-03-21 11:05:00,29.8,16.0,29.42,NW,311,2.8,5.0,56,0.01,RA,SCT,0.01,WeatherDisplay:10.37,2013-03-21 15:05:00,
2013-03-21 11:10:00,29.7,15.9,29.41,NNE,12,4.8,6.0,56,0.01,RA,SCT,0.01,WeatherDisplay:10.37,2013-03-21 15:10:00,
2013-03-21 11:15:00,30.1,15.9,29.41,NW,324,2.5,5.8,55,0.01,,SCT,0.01,WeatherDisplay:10.37,2013-03-21 15:15:00,
2013-03-21 11:20:00,30.1,15.4,29.41,NNW,329,3.8,4.6,54,0.01,CLR,SCT,0.01,WeatherDisplay:10.37,2013-03-21 15:20:00,
2013-03-21 11:25:00,30.5,15.8,29.41,North,5,1.8,4.6,54,0.01,CLR,SCT,0.01,WeatherDisplay:10.37,2013-03-21 15:25:00,
2013-03-21 11:30:00,31.0,16.7,29.41,NNE,30,1.4,3.5,55,0.01,CLR,SCT,0.01,WeatherDisplay:10.37,2013-03-21 15:30:00,
2013-03-21 11:35:00,31.5,16.3,29.40,NNE,24,4.3,4.6,53,0.01,CLR,SCT,0.01,WeatherDisplay:10.37,2013-03-21 15:35:00,
2013-03-21 11:40:00,31.4,16.7,29.40,NNE,30,2.9,6.0,54,0.01,CLR,SCT,0.01,WeatherDisplay:10.37,2013-03-21 15:40:00,
2013-03-21 11:45:00,31.7,15.6,29.40,NNW,336,2.0,4.6,51,0.01,CLR,SCT,0.01,WeatherDisplay:10.37,2013-03-21 15:45:00,
2013-03-21 11:50:00,31.1,15.1,29.40,North,349,6.5,8.1,51,0.01,CLR,SCT,0.01,WeatherDisplay:10.37,2013-03-21 15:50:00,
2013-03-21 11:55:00,30.5,14.5,29.40,NE,49,4.9,5.8,51,0.01,CLR,SCT,0.01,WeatherDisplay:10.37,2013-03-21 15:55:00,
2013-03-21 12:00:00,30.8,14.8,29.40,NNW,329,3.5,5.0,51,0.01,CLR,SCT,0.01,WeatherDisplay:10.37,2013-03-21 16:00:00,
2013-03-21 12:05:00,31.0,14.5,29.40,NNW,346,1.4,5.8,50,0.00,CLR,SCT,0.01,WeatherDisplay:10.37,2013-03-21 16:05:00,
2013-03-21 12:10:00,31.5,14.5,29.40,NW,317,4.6,5.8,49,0.00,CLR,SCT,0.01,WeatherDisplay:10.37,2013-03-21 16:10:00,
2013-03-21 12:15:00,31.4,14.4,29.39,WNW,302,4.6,6.9,49,0.00,CLR,SCT,0.01,WeatherDisplay:10.37,2013-03-21 16:15:00,
2013-03-21 12:20:00,31.6,13.7,29.39,NNE,17,3.1,8.1,47,0.01,RA,SCT,0.02,WeatherDisplay:10.37,2013-03-21 16:20:00,
2013-03-21 12:25:00,31.7,13.7,29.39,NNE,32,2.5,6.0,47,0.01,RA,SCT,0.02,WeatherDisplay:10.37,2013-03-21 16:25:00,
2013-03-21 12:30:00,31.9,12.4,29.39,NE,46,3.5,5.8,44,0.01,CLR,SCT,0.02,WeatherDisplay:10.37,2013-03-21 16:30:00,
2013-03-21 12:35:00,32.3,13.3,29.38,NNE,14,4.6,7.0,45,0.01,CLR,SCT,0.02,WeatherDisplay:10.37,2013-03-21 16:35:00,
2013-03-21 12:40:00,32.2,11.6,29.38,NNW,348,6.4,8.1,42,0.01,CLR,SCT,0.02,WeatherDisplay:10.37,2013-03-21 16:40:00,
2013-03-21 12:45:00,32.6,12.5,29.37,North,355,2.8,5.8,43,0.01,CLR,SCT,0.02,WeatherDisplay:10.37,2013-03-21 16:45:00,
2013-03-21 12:50:00,33.0,12.4,29.37,NNE,17,2.3,6.0,42,0.01,CLR,SCT,0.02,WeatherDisplay:10.37,2013-03-21 16:50:00,
2013-03-21 12:55:00,33.5,13.9,29.37,NW,316,5.1,7.0,44,0.01,CLR,SCT,0.02,WeatherDisplay:10.37,2013-03-21 16:55:00,
2013-03-21 13:00:00,33.7,12.5,29.37,NNW,340,4.7,6.9,41,0.01,CLR,SCT,0.02,WeatherDisplay:10.37,2013-03-21 17:00:00,
2013-03-21 13:05:00,33.4,11.6,29.37,NNW,333,4.1,5.8,40,0.02,RA,SCT,0.03,WeatherDisplay:10.37,2013-03-21 17:05:00,
2013-03-21 13:10:00,33.0,10.1,29.36,West,272,3.6,5.0,38,0.02,RA,SCT,0.03,WeatherDisplay:10.37,2013-03-21 17:10:00,
2013-03-21 13:15:00,33.2,13.1,29.36,NNW,331,3.0,6.0,43,0.02,,SCT,0.03,WeatherDisplay:10.37,2013-03-21 17:15:00,
2013-03-21 13:20:00,33.4,12.2,29.36,NNE,15,4.6,9.2,41,0.01,CLR,SCT,0.03,WeatherDisplay:10.37,2013-03-21 17:20:00,
2013-03-21 13:25:00,33.1,9.6,29.36,NW,306,2.2,4.6,37,0.01,CLR,SCT,0.03,WeatherDisplay:10.37,2013-03-21 17:25:00,
2013-03-21 13:30:00,33.9,12.6,29.36,NW,314,1.7,3.5,41,0.01,CLR,SCT,0.03,WeatherDisplay:10.37,2013-03-21 17:30:00,
2013-03-21 13:35:00,34.2,12.9,29.35,NNW,329,2.5,4.6,41,0.01,CLR,SCT,0.03,WeatherDisplay:10.37,2013-03-21 17:35:00,
2013-03-21 13:40:00,34.9,13.0,29.35,WNW,298,4.5,6.9,40,0.02,RA,SCT,0.04,WeatherDisplay:10.37,2013-03-21 17:40:00,
2013-03-21 13:45:00,34.6,12.7,29.35,NW,323,5.3,8.1,40,0.02,RA,SCT,0.04,WeatherDisplay:10.37,2013-03-21 17:45:00,
2013-03-21 13:50:00,34.2,12.9,29.35,NNE,27,1.8,5.8,41,0.02,CLR,SCT,0.04,WeatherDisplay:10.37,2013-03-21 17:50:00,
2013-03-21 13:55:00,35.0,16.3,29.34,NNW,327,5.3,5.8,46,0.02,CLR,SCT,0.04,WeatherDisplay:10.37,2013-03-21 17:55:00,
2013-03-21 14:00:00,35.5,15.7,29.34,NNW,340,3.0,7.0,44,0.02,CLR,SCT,0.04,WeatherDisplay:10.37,2013-03-21 18:00:00,
2013-03-21 14:05:00,35.4,15.1,29.33,NNE,21,1.5,5.8,43,0.01,CLR,SCT,0.04,WeatherDisplay:10.37,2013-03-21 18:05:00,
2013-03-21 14:10:00,35.2,14.4,29.33,West,278,2.7,5.8,42,0.01,CLR,SCT,0.04,WeatherDisplay:10.37,2013-03-21 18:10:00,
2013-03-21 14:15:00,36.0,13.4,29.33,NNW,346,4.7,5.8,39,0.02,RA,SCT,0.05,WeatherDisplay:10.37,2013-03-21 18:15:00,
2013-03-21 14:20:00,35.8,13.2,29.33,NW,305,4.0,6.0,39,0.02,RA,SCT,0.05,WeatherDisplay:10.37,2013-03-21 18:20:00,
2013-03-21 14:25:00,35.3,11.0,29.33,West,280,2.6,4.6,36,0.02,CLR,SCT,0.05,WeatherDisplay:10.37,2013-03-21 18:25:00,
2013-03-21 14:30:00,34.7,10.4,29.33,WNW,284,3.7,5.8,36,0.02,CLR,SCT,0.05,WeatherDisplay:10.37,2013-03-21 18:30:00,
2013-03-21 14:35:00,35.2,12.1,29.33,North,355,4.5,6.9,38,0.02,CLR,SCT,0.05,WeatherDisplay:10.37,2013-03-21 18:35:00,
2013-03-21 14:40:00,35.1,12.6,29.33,NNW,338,4.7,6.9,39,0.01,CLR,SCT,0.05,WeatherDisplay:10.37,2013-03-21 18:40:00,
2013-03-21 14:45:00,35.6,14.2,29.33,NW,313,5.2,10.4,41,0.01,CLR,SCT,0.06,WeatherDisplay:10.37,2013-03-21 18:45:00,
2013-03-21 14:50:00,35.1,11.4,29.32,North,351,3.6,4.6,37,0.02,RA,SCT,0.06,WeatherDisplay:10.37,2013-03-21 18:50:00,
2013-03-21 14:55:00,34.3,10.7,29.32,NW,309,3.7,5.8,37,0.02,RA,SCT,0.06,WeatherDisplay:10.37,2013-03-21 18:55:00,
2013-03-21 15:00:00,34.8,9.2,29.32,NW,315,2.6,5.0,34,0.02,CLR,SCT,0.06,WeatherDisplay:10.37,2013-03-21 19:00:00,
2013-03-21 15:05:00,34.7,12.2,29.32,WNW,298,4.5,5.8,39,0.02,CLR,SCT,0.06,WeatherDisplay:10.37,2013-03-21 19:05:00,
2013-03-21 15:10:00,34.9,11.8,29.32,North,5,5.9,8.1,38,0.02,CLR,SCT,0.06,WeatherDisplay:10.37,2013-03-21 19:10:00,
2013-03-21 15:15:00,34.9,11.8,29.32,NNW,334,2.8,5.0,38,0.01,CLR,SCT,0.06,WeatherDisplay:10.37,2013-03-21 19:15:00,
2013-03-21 15:20:00,34.3,10.7,29.32,WNW,299,3.8,8.1,37,0.01,CLR,SCT,0.06,WeatherDisplay:10.37,2013-03-21 19:20:00,
2013-03-21 15:25:00,34.1,10.5,29.32,WNW,286,3.8,9.2,37,0.01,CLR,SCT,0.06,WeatherDisplay:10.37,2013-03-21 19:25:00,
2013-03-21 15:30:00,33.9,11.5,29.32,NNE,12,4.1,5.8,39,0.01,CLR,SCT,0.06,WeatherDisplay:10.37,2013-03-21 19:30:00,
2013-03-21 15:35:00,34.5,12.6,29.32,NW,307,3.6,5.8,40,0.01,CLR,SCT,0.06,WeatherDisplay:10.37,2013-03-21 19:35:00,
2013-03-21 15:40:00,34.6,12.7,29.32,NW,325,4.9,9.2,40,0.01,CLR,SCT,0.06,WeatherDisplay:10.37,2013-03-21 19:40:00,
2013-03-21 15:45:00,34.4,12.0,29.31,NNW,346,3.8,5.0,39,0.01,CLR,SCT,0.06,WeatherDisplay:10.37,2013-03-21 19:45:00,
2013-03-21 15:50:00,34.3,9.4,29.31,WNW,303,2.8,5.8,35,0.00,CLR,SCT,0.06,WeatherDisplay:10.37,2013-03-21 19:50:00,
2013-03-21 15:55:00,34.4,12.0,29.31,WSW,237,3.7,5.0,39,0.00,CLR,SCT,0.06,WeatherDisplay:10.37,2013-03-21 19:55:00,
2013-03-21 16:00:00,34.7,11.6,29.31,WNW,283,3.2,4.6,38,0.00,CLR,SCT,0.06,WeatherDisplay:10.37,2013-03-21 20:00:00,
2013-03-21 16:05:00,34.8,11.1,29.31,WNW,303,3.8,4.6,37,0.00,CLR,SCT,0.06,WeatherDisplay:10.37,2013-03-21 20:05:00,
2013-03-21 16:10:00,34.8,9.9,29.31,NW,322,4.6,8.1,35,0.00,CLR,SCT,0.06,WeatherDisplay:10.37,2013-03-21 20:10:00,
2013-03-21 16:15:00,34.4,11.4,29.31,NW,309,3.9,5.8,38,0.00,CLR,SCT,0.06,WeatherDisplay:10.37,2013-03-21 20:15:00,
2013-03-21 16:20:00,34.3,9.4,29.30,North,5,2.6,3.5,35,0.00,CLR,SCT,0.06,WeatherDisplay:10.37,2013-03-21 20:20:00,
2013-03-21 16:25:00,34.3,9.4,29.30,ENE,65,0.0,1.1,35,0.01,RA,SCT,0.07,WeatherDisplay:10.37,2013-03-21 20:25:00,
2013-03-21 16:30:00,35.1,12.0,29.30,NNW,331,2.9,4.6,38,0.01,RA,SCT,0.07,WeatherDisplay:10.37,2013-03-21 20:30:00,
2013-03-21 16:35:00,34.7,11.0,29.31,NW,316,5.2,6.0,37,0.01,,SCT,0.07,WeatherDisplay:10.37,2013-03-21 20:35:00,
2013-03-21 16:40:00,34.4,13.1,29.30,North,351,1.6,4.6,41,0.01,CLR,SCT,0.07,WeatherDisplay:10.37,2013-03-21 20:40:00,
2013-03-21 16:45:00,34.3,13.0,29.31,NW,304,3.8,5.0,41,0.01,CLR,SCT,0.07,WeatherDisplay:10.37,2013-03-21 20:45:00,
2013-03-21 16:50:00,34.2,12.4,29.30,WNW,294,3.7,4.6,40,0.01,CLR,SCT,0.07,WeatherDisplay:10.37,2013-03-21 20:50:00,
2013-03-21 16:55:00,33.9,11.5,29.30,NNW,332,3.7,4.6,39,0.01,CLR,SCT,0.07,WeatherDisplay:10.37,2013-03-21 20:55:00,
2013-03-21 17:00:00,34.0,12.2,29.30,NNW,327,1.6,4.6,40,0.01,CLR,SCT,0.07,WeatherDisplay:10.37,2013-03-21 21:00:00,
2013-03-21 17:05:00,34.2,12.9,29.30,WNW,297,2.0,3.5,41,0.01,CLR,SCT,0.07,WeatherDisplay:10.37,2013-03-21 21:05:00,
2013-03-21 17:10:00,34.1,13.4,29.30,NW,315,3.3,3.5,42,0.01,CLR,SCT,0.07,WeatherDisplay:10.37,2013-03-21 21:10:00,
2013-03-21 17:15:00,34.5,13.7,29.30,North,360,1.1,4.6,42,0.01,CLR,SCT,0.07,WeatherDisplay:10.37,2013-03-21 21:15:00,
2013-03-21 17:20:00,35.0,13.6,29.30,NW,304,4.7,4.7,41,0.01,CLR,SCT,0.07,WeatherDisplay:10.37,2013-03-21 21:20:00,
2013-03-21 17:25:00,34.6,13.3,29.30,WNW,301,4.0,5.8,41,0.00,CLR,SCT,0.07,WeatherDisplay:10.37,2013-03-21 21:25:00,
2013-03-21 17:30:00,34.2,12.4,29.30,NW,309,4.6,6.9,40,0.00,CLR,SCT,0.07,WeatherDisplay:10.37,2013-03-21 21:30:00,
2013-03-21 17:35:00,33.9,13.2,29.30,WSW,250,2.8,5.8,42,0.00,CLR,SCT,0.07,WeatherDisplay:10.37,2013-03-21 21:35:00,
2013-03-21 17:40:00,33.8,13.1,29.30,WNW,303,2.5,3.5,42,0.00,CLR,SCT,0.07,WeatherDisplay:10.37,2013-03-21 21:40:00,
2013-03-21 17:45:00,33.7,14.1,29.30,NNW,347,3.5,4.0,44,0.00,CLR,SCT,0.07,WeatherDisplay:10.37,2013-03-21 21:45:00,
2013-03-21 17:50:00,33.5,12.8,29.30,NNW,348,5.5,6.9,42,0.00,CLR,SCT,0.07,WeatherDisplay:10.37,2013-03-21 21:50:00,
2013-03-21 17:55:00,33.4,13.3,29.30,WNW,301,4.0,5.8,43,0.00,CLR,SCT,0.07,WeatherDisplay:10.37,2013-03-21 21:55:00,
2013-03-21 18:00:00,33.4,12.7,29.30,WNW,289,4.1,4.6,42,0.00,CLR,SCT,0.07,WeatherDisplay:10.37,2013-03-21 22:00:00,
2013-03-21 18:05:00,33.4,13.3,29.31,WNW,300,3.1,8.1,43,0.00,CLR,SCT,0.07,WeatherDisplay:10.37,2013-03-21 22:05:00,
2013-03-21 18:10:00,33.3,14.7,29.31,NW,308,2.9,6.9,46,0.00,CLR,SCT,0.07,WeatherDisplay:10.37,2013-03-21 22:10:00,
2013-03-21 18:15:00,33.2,13.6,29.31,NW,322,3.1,5.8,44,0.00,CLR,SCT,0.07,WeatherDisplay:10.37,2013-03-21 22:15:00,
2013-03-21 18:20:00,33.0,13.4,29.31,WNW,288,3.0,4.6,44,0.00,CLR,SCT,0.07,WeatherDisplay:10.37,2013-03-21 22:20:00,
2013-03-21 18:25:00,32.9,13.3,29.31,North,350,2.3,4.6,44,0.00,CLR,SCT,0.07,WeatherDisplay:10.37,2013-03-21 22:25:00,
2013-03-21 18:30:00,32.8,14.3,29.31,NNW,344,2.5,2.5,46,0.00,CLR,SCT,0.07,WeatherDisplay:10.37,2013-03-21 22:30:00,
2013-03-21 18:35:00,32.6,14.6,29.31,NW,304,1.6,2.3,47,0.00,CLR,SCT,0.07,WeatherDisplay:10.37,2013-03-21 22:35:00,
2013-03-21 18:40:00,32.4,13.9,29.31,NW,316,2.4,4.0,46,0.00,CLR,SCT,0.07,WeatherDisplay:10.37,2013-03-21 22:40:00,
2013-03-21 18:45:00,32.3,12.8,29.31,NW,313,2.2,4.6,44,0.00,CLR,SCT,0.07,WeatherDisplay:10.37,2013-03-21 22:45:00,
2013-03-21 18:50:00,32.1,13.1,29.32,West,275,4.0,5.8,45,0.00,CLR,SCT,0.07,WeatherDisplay:10.37,2013-03-21 22:50:00,
2013-03-21 18:55:00,32.0,13.0,29.32,NNW,329,3.7,5.8,45,0.00,CLR,SCT,0.07,WeatherDisplay:10.37,2013-03-21 22:55:00,
2013-03-21 19:00:00,31.8,12.8,29.32,NW,318,3.2,4.6,45,0.00,CLR,SCT,0.07,WeatherDisplay:10.37,2013-03-21 23:00:00,
2013-03-21 19:05:00,31.6,13.2,29.32,NW,320,3.0,4.6,46,0.00,CLR,SCT,0.07,WeatherDisplay:10.37,2013-03-21 23:05:00,
2013-03-21 19:10:00,31.6,13.2,29.32,WNW,303,3.1,4.0,46,0.00,CLR,SCT,0.07,WeatherDisplay:10.37,2013-03-21 23:10:00,
2013-03-21 19:15:00,31.4,13.5,29.32,NNW,333,1.8,4.6,47,0.00,CLR,SCT,0.07,WeatherDisplay:10.37,2013-03-21 23:15:00,
2013-03-21 19:20:00,31.2,13.8,29.32,NW,309,3.2,4.0,48,0.00,CLR,SCT,0.07,WeatherDisplay:10.37,2013-03-21 23:20:00,
2013-03-21 19:25:00,31.1,13.2,29.33,NW,308,1.3,3.5,47,0.00,CLR,SCT,0.07,WeatherDisplay:10.37,2013-03-21 23:25:00,
2013-03-21 19:30:00,31.0,12.6,29.33,North,5,3.5,6.9,46,0.00,CLR,SCT,0.07,WeatherDisplay:10.37,2013-03-21 23:30:00,
2013-03-21 19:35:00,30.9,13.0,29.33,NNW,339,4.0,5.8,47,0.00,CLR,SCT,0.07,WeatherDisplay:10.37,2013-03-21 23:35:00,
2013-03-21 19:40:00,30.6,13.2,29.33,NNW,344,5.2,5.2,48,0.00,CLR,SCT,0.07,WeatherDisplay:10.37,2013-03-21 23:40:00,
2013-03-21 19:45:00,30.5,13.1,29.33,West,273,4.7,8.1,48,0.00,CLR,SCT,0.07,WeatherDisplay:10.37,2013-03-21 23:45:00,
2013-03-21 19:50:00,30.4,12.1,29.33,WNW,300,5.6,11.5,46,0.00,CLR,SCT,0.07,WeatherDisplay:10.37,2013-03-21 23:50:00,
2013-03-21 19:55:00,30.3,12.9,29.33,NW,305,4.0,5.8,48,0.00,CLR,SCT,0.07,WeatherDisplay:10.37,2013-03-21 23:55:00,
2013-03-21 20:00:00,30.3,12.5,29.34,NNW,346,1.2,6.9,47,0.00,CLR,SCT,0.07,WeatherDisplay:10.37,2013-03-22 00:00:00,
2013-03-21 20:05:00,30.1,12.7,29.34,WNW,294,2.8,4.6,48,0.00,CLR,SCT,0.07,WeatherDisplay:10.37,2013-03-22 00:05:00,
2013-03-21 20:10:00,29.8,12.5,29.34,WNW,303,5.6,8.1,48,0.00,CLR,SCT,0.07,WeatherDisplay:10.37,2013-03-22 00:10:00,
2013-03-21 20:15:00,29.8,12.5,29.34,NW,321,3.5,5.8,48,0.00,CLR,SCT,0.07,WeatherDisplay:10.37,2013-03-22 00:15:00,
2013-03-21 20:20:00,29.9,11.6,29.34,NW,324,3.3,6.9,46,0.00,CLR,SCT,0.07,WeatherDisplay:10.37,2013-03-22 00:20:00,
2013-03-21 20:25:00,29.8,12.5,29.34,NNW,329,7.0,10.0,48,0.00,CLR,SCT,0.07,WeatherDisplay:10.37,2013-03-22 00:25:00,
2013-03-21 20:30:00,29.8,12.0,29.34,NW,317,3.3,5.8,47,0.00,CLR,SCT,0.07,WeatherDisplay:10.37,2013-03-22 00:30:00,
2013-03-21 20:35:00,29.6,12.3,29.35,NNW,342,3.1,8.0,48,0.00,CLR,SCT,0.07,WeatherDisplay:10.37,2013-03-22 00:35:00,
2013-03-21 20:40:00,29.5,12.2,29.35,NNW,331,3.4,4.6,48,0.00,CLR,SCT,0.07,WeatherDisplay:10.37,2013-03-22 00:40:00,
2013-03-21 20:45:00,29.4,12.6,29.35,NNW,327,1.4,5.8,49,0.00,CLR,SCT,0.07,WeatherDisplay:10.37,2013-03-22 00:45:00,
2013-03-21 20:50:00,29.3,12.0,29.35,NW,315,3.9,8.1,48,0.00,CLR,SCT,0.07,WeatherDisplay:10.37,2013-03-22 00:50:00,
2013-03-21 20:55:00,29.2,12.4,29.35,West,281,1.8,5.8,49,0.00,CLR,SCT,0.07,WeatherDisplay:10.37,2013-03-22 00:55:00,
2013-03-21 21:00:00,29.0,12.2,29.35,NW,319,1.0,2.3,49,0.00,CLR,SCT,0.07,WeatherDisplay:10.37,2013-03-22 01:00:00,
2013-03-21 21:05:00,28.9,13.0,29.35,North,355,4.2,4.2,51,0.00,CLR,SCT,0.07,WeatherDisplay:10.37,2013-03-22 01:05:00,
2013-03-21 21:10:00,29.0,12.2,29.35,NNW,346,4.1,4.6,49,0.00,CLR,SCT,0.07,WeatherDisplay:10.37,2013-03-22 01:10:00,
2013-03-21 21:15:00,28.9,13.0,29.36,NW,315,2.3,3.5,51,0.00,CLR,SCT,0.07,WeatherDisplay:10.37,2013-03-22 01:15:00,
2013-03-21 21:20:00,28.8,11.6,29.35,NW,309,3.3,6.9,48,0.00,CLR,SCT,0.07,WeatherDisplay:10.37,2013-03-22 01:20:00,
2013-03-21 21:25:00,28.7,11.9,29.36,West,281,2.0,3.5,49,0.00,CLR,SCT,0.07,WeatherDisplay:10.37,2013-03-22 01:25:00,
2013-03-21 21:30:00,28.7,11.9,29.36,WNW,302,5.0,5.8,49,0.00,CLR,SCT,0.07,WeatherDisplay:10.37,2013-03-22 01:30:00,
2013-03-21 21:35:00,28.7,11.5,29.36,WNW,301,3.2,6.9,48,0.00,CLR,SCT,0.07,WeatherDisplay:10.37,2013-03-22 01:35:00,
2013-03-21 21:40:00,28.8,12.0,29.36,NNW,332,2.9,10.4,49,0.00,CLR,SCT,0.07,WeatherDisplay:10.37,2013-03-22 01:40:00,
2013-03-21 21:45:00,28.7,11.5,29.36,NW,312,3.8,6.0,48,0.00,CLR,SCT,0.07,WeatherDisplay:10.37,2013-03-22 01:45:00,
2013-03-21 21:50:00,28.6,11.4,29.36,NNW,344,5.0,9.2,48,0.00,CLR,SCT,0.07,WeatherDisplay:10.37,2013-03-22 01:50:00,
2013-03-21 21:55:00,28.5,11.3,29.36,North,355,5.0,5.8,48,0.00,CLR,SCT,0.07,WeatherDisplay:10.37,2013-03-22 01:55:00,
2013-03-21 22:00:00,28.5,12.6,29.36,NNW,343,2.1,5.8,51,0.00,CLR,SCT,0.07,WeatherDisplay:10.37,2013-03-22 02:00:00,
2013-03-21 22:05:00,28.4,11.6,29.36,NNW,342,4.1,4.6,49,0.00,CLR,SCT,0.07,WeatherDisplay:10.37,2013-03-22 02:05:00,
2013-03-21 22:10:00,28.2,12.4,29.36,North,351,3.3,5.8,51,0.00,CLR,SCT,0.07,WeatherDisplay:10.37,2013-03-22 02:10:00,
2013-03-21 22:15:00,28.1,11.4,29.36,NW,326,3.5,5.8,49,0.00,CLR,SCT,0.07,WeatherDisplay:10.37,2013-03-22 02:15:00,
2013-03-21 22:20:00,27.9,11.6,29.36,North,355,2.7,5.8,50,0.00,CLR,SCT,0.07,WeatherDisplay:10.37,2013-03-22 02:20:00,
2013-03-21 22:25:00,27.8,11.5,29.36,NNW,327,4.2,4.6,50,0.00,CLR,SCT,0.07,WeatherDisplay:10.37,2013-03-22 02:25:00,
2013-03-21 22:30:00,27.8,11.5,29.37,NNW,343,4.9,4.9,50,0.00,CLR,SCT,0.07,WeatherDisplay:10.37,2013-03-22 02:30:00,
2013-03-21 22:35:00,27.8,12.0,29.37,NW,323,5.9,10.4,51,0.00,CLR,SCT,0.07,WeatherDisplay:10.37,2013-03-22 02:35:00,
2013-03-21 22:40:00,27.8,11.5,29.37,NW,307,3.7,5.8,50,0.00,CLR,SCT,0.07,WeatherDisplay:10.37,2013-03-22 02:40:00,
2013-03-21 22:45:00,27.7,11.9,29.37,NW,307,4.6,10.4,51,0.00,CLR,SCT,0.07,WeatherDisplay:10.37,2013-03-22 02:45:00,
2013-03-21 22:50:00,27.6,12.2,29.37,NNW,336,4.0,5.8,52,0.00,CLR,SCT,0.07,WeatherDisplay:10.37,2013-03-22 02:50:00,
2013-03-21 22:55:00,27.5,11.7,29.37,NNW,340,5.1,6.9,51,0.00,CLR,SCT,0.07,WeatherDisplay:10.37,2013-03-22 02:55:00,
2013-03-21 23:00:00,27.5,12.2,29.37,NW,308,4.7,9.2,52,0.00,CLR,SCT,0.07,WeatherDisplay:10.37,2013-03-22 03:00:00,
2013-03-21 23:05:00,27.4,11.6,29.37,North,355,4.6,10.4,51,0.00,CLR,SCT,0.07,WeatherDisplay:10.37,2013-03-22 03:05:00,
2013-03-21 23:10:00,27.3,12.0,29.37,NNW,348,5.4,10.4,52,0.00,CLR,SCT,0.07,WeatherDisplay:10.37,2013-03-22 03:10:00,
2013-03-21 23:15:00,27.2,11.9,29.37,NW,325,6.5,8.1,52,0.00,CLR,SCT,0.07,WeatherDisplay:10.37,2013-03-22 03:15:00,
2013-03-21 23:20:00,27.1,12.6,29.37,WNW,299,3.3,5.8,54,0.00,CLR,SCT,0.07,WeatherDisplay:10.37,2013-03-22 03:20:00,
2013-03-21 23:25:00,27.0,12.5,29.37,NW,315,5.6,9.2,54,0.00,CLR,SCT,0.07,WeatherDisplay:10.37,2013-03-22 03:25:00,
2013-03-21 23:30:00,26.9,12.5,29.37,NNW,332,6.0,6.9,54,0.00,CLR,SCT,0.07,WeatherDisplay:10.37,2013-03-22 03:30:00,
2013-03-21 23:35:00,26.7,12.3,29.37,NW,323,5.6,6.9,54,0.00,CLR,SCT,0.07,WeatherDisplay:10.37,2013-03-22 03:35:00,
2013-03-21 23:40:00,26.6,12.2,29.37,WNW,292,7.2,9.2,54,0.00,CLR,SCT,0.07,WeatherDisplay:10.37,2013-03-22 03:40:00,
2013-03-21 23:45:00,26.5,12.5,29.38,NNW,331,3.5,5.8,55,0.00,CLR,SCT,0.07,WeatherDisplay:10.37,2013-03-22 03:45:00,
2013-03-21 23:50:00,26.3,13.1,29.38,NW,304,3.3,3.5,57,0.00,CLR,SCT,0.07,WeatherDisplay:10.37,2013-03-22 03:50:00,
2013-03-21 23:55:00,26.2,12.2,29.38,North,360,5.7,11.5,55,0.00,CLR,SCT,0.07,WeatherDisplay:10.37,2013-03-22 03:55:00,